TimeCST,TemperatureF,Dew PointF,Humidity,Sea Level PressureIn,VisibilityMPH,Wind Direction,Wind SpeedMPH,Gust SpeedMPH,PrecipitationIn,Events,Conditions,WindDirDegrees,DateUTC
12:53 AM,30.9,27.0,85,30.55,10.0,Calm,Calm,-,N/A,,Clear,0,2013-12-24 06:53:00
1:53 AM,30.0,26.1,85,30.54,10.0,North,5.8,-,N/A,,Clear,10,2013-12-24 07:53:00
2:53 AM,30.0,25.0,82,30.53,10.0,Calm,Calm,-,N/A,,Clear,0,2013-12-24 08:53:00
3:53 AM,28.9,25.0,85,30.55,10.0,North,3.5,-,N/A,,Clear,350,2013-12-24 09:53:00
4:53 AM,27.0,24.1,89,30.56,10.0,Calm,Calm,-,N/A,,Clear,0,2013-12-24 10:53:00
5:53 AM,28.0,25.0,88,30.53,10.0,NE,4.6,-,N/A,,Clear,50,2013-12-24 11:53:00
6:53 AM,28.0,25.0,88,30.54,10.0,ENE,4.6,-,N/A,,Clear,70,2013-12-24 12:53:00
7:53 AM,28.9,25.0,85,30.57,10.0,Calm,Calm,-,N/A,,Clear,0,2013-12-24 13:53:00
8:53 AM,33.1,28.0,82,30.56,10.0,ENE,3.5,-,N/A,,Clear,70,2013-12-24 14:53:00
9:53 AM,37.9,30.0,73,30.57,10.0,SSE,4.6,-,N/A,,Clear,160,2013-12-24 15:53:00
10:53 AM,43.0,30.0,60,30.56,10.0,SSE,6.9,-,N/A,,Clear,160,2013-12-24 16:53:00
11:53 AM,46.0,30.0,54,30.52,10.0,South,6.9,-,N/A,,Clear,180,2013-12-24 17:53:00
12:53 PM,48.9,28.0,44,30.48,10.0,South,10.4,-,N/A,,Clear,170,2013-12-24 18:53:00
1:53 PM,51.1,28.9,43,30.44,10.0,South,6.9,-,N/A,,Clear,180,2013-12-24 19:53:00
2:53 PM,52.0,28.0,40,30.41,10.0,SE,9.2,-,N/A,,Clear,140,2013-12-24 20:53:00
3:53 PM,52.0,30.0,43,30.38,10.0,SSE,10.4,-,N/A,,Clear,150,2013-12-24 21:53:00
4:53 PM,50.0,30.0,46,30.38,10.0,SSE,10.4,-,N/A,,Clear,150,2013-12-24 22:53:00
5:53 PM,45.0,30.0,56,30.36,10.0,SE,8.1,-,N/A,,Clear,140,2013-12-24 23:53:00
6:53 PM,44.1,28.9,55,30.35,10.0,SSE,9.2,-,N/A,,Clear,160,2013-12-25 00:53:00
7:53 PM,44.1,28.9,55,30.34,10.0,SSE,11.5,-,N/A,,Clear,160,2013-12-25 01:53:00
8:53 PM,44.1,28.0,53,30.34,10.0,SSE,12.7,-,N/A,,Clear,150,2013-12-25 02:53:00
9:53 PM,42.1,28.0,58,30.33,10.0,SSE,10.4,-,N/A,,Clear,160,2013-12-25 03:53:00
10:53 PM,41.0,28.0,60,30.34,10.0,South,9.2,-,N/A,,Clear,170,2013-12-25 04:53:00
11:53 PM,39.0,28.0,65,30.33,10.0,SSE,9.2,-,N/A,,Clear,160,2013-12-25 05:53:00